{"data":{"norad_id":66514,"intl_designator":"2025-264A","name":"SENTINEL-6B","alt_names":[],"object_type":"PAYLOAD","status":"ACTIVE","operator":null,"country":"ESA","launch_date":"2025-11-17","launch_site_code":"AFWTR","launch_vehicle":null,"mission":null,"orbit_class":"UNKNOWN","rcs_meters":null,"size_class":null,"mass_kg":null,"dimensions":null,"purposes":["earth_obs"],"wikipedia_slug":null,"has_3d_model":false,"image_url":null,"decayed_at":null,"tle_current":{"epoch":"2026-09-20T00:37:41.456064Z","epoch_age_seconds":59247,"freshness":"FRESH","line1":"1 66514U 25264A   26263.02617426 -.00000042  00000+0  82429-4 0  9993","line2":"2 66514  66.0409 298.1975 0007883 267.9004  92.1109 12.80929337 39316","mean_motion":12.80929337,"eccentricity":0.0007883,"inclination_deg":66.0409,"raan_deg":298.1975,"arg_perigee_deg":267.9004,"mean_anomaly_deg":92.1109,"bstar":8.2429e-5,"rev_number":3931,"period_min":112.41837925053,"perigee_km":1331.6533823147,"apogee_km":1343.8182273788,"semimajor_km":7715.8728048467,"source":"CELESTRAK","updated_at":"2026-09-20T09:00:34.133232Z"}}}